WXM80 ListenWXM80 Stop

You find our weather info also at:

UK Metoffice

WeatherCloud

Weather Underground

Northeastern Weather Network

AWEKAS

Citizen Weather Observer Program (CWOP)

HAMweather, WeatherForYou, PWS Weather


Weather Underground History page Text

Daily Summary for November 30, 2017 Units:  Metric    English   Both
« Previous Day
Next Day »
Daily Weekly Monthly Yearly Custom
  High: Low: Average:
Temperature: 10.3 °C 1.9 °C 6.3 °C
Dew Point: 9.1 °C -2.2 °C 2.3 °C
Humidity: 96 % 61 % 76 %
Wind Speed: 14.8 km/h 0 km/h 3.4 km/h
Wind Gust: 22.2 km/h - -
Wind:- - ESE
Pressure: 1028 hPa 1010 hPa -
Precipitation: 0 mm    
Historical Graphs
 
 
Tabular Data for November 30, 2017
Time Temperature Dew Point Pressure Wind Wind Speed Wind Gust Humidity Rainfall Rate (Hourly)
00:02 5.8 °C -1.1 °C 1026.6 hPa North 6.1 km/h 11.1 km/h 61 % 0 mm
00:07 5.8 °C -0.9 °C 1026.6 hPa North 5.8 km/h 9.3 km/h 62 % 0 mm
00:12 5.7 °C -1 °C 1026.6 hPa NNW 6 km/h 14.8 km/h 62 % 0 mm
00:17 5.7 °C -1.1 °C 1026.3 hPa North 8.4 km/h 9.7 km/h 62 % 0 mm
00:22 5.7 °C -1.1 °C 1026.3 hPa North 2.3 km/h 7.4 km/h 62 % 0 mm
00:28 5.6 °C -0.9 °C 1026.6 hPa NNE 6.3 km/h 11.1 km/h 63 % 0 mm
00:38 5.6 °C -0.7 °C 1026.3 hPa North 9.8 km/h 13 km/h 64 % 0 mm
00:43 5.5 °C -1 °C 1026 hPa ENE 8.2 km/h 18.5 km/h 63 % 0 mm
00:48 5.5 °C -0.8 °C 1026.3 hPa NNE 6.9 km/h 16.7 km/h 64 % 0 mm
01:03 5.5 °C -1 °C 1026.3 hPa NNE 11.9 km/h 16.7 km/h 63 % 0 mm
01:08 5.4 °C -0.8 °C 1026.3 hPa North 9.2 km/h 22.2 km/h 64 % 0 mm
01:13 5.5 °C -0.8 °C 1026.3 hPa NNE 8.7 km/h 18.5 km/h 64 % 0 mm
01:18 5.4 °C -0.8 °C 1026.3 hPa NNE 12.4 km/h 18.5 km/h 64 % 0 mm
01:23 5.4 °C -1.1 °C 1026.3 hPa NE 13.4 km/h 19.3 km/h 63 % 0 mm
01:28 5.4 °C -0.8 °C 1026.3 hPa NNE 7.9 km/h 14.8 km/h 64 % 0 mm
01:33 5.4 °C -0.8 °C 1026.3 hPa NNE 10.6 km/h 17.7 km/h 64 % 0 mm
01:38 5.4 °C -1.1 °C 1026.3 hPa NNE 10.6 km/h 18.5 km/h 63 % 0 mm
01:43 5.4 °C -0.9 °C 1026.3 hPa NNE 10.3 km/h 20.4 km/h 64 % 0 mm
01:48 5.4 °C -0.9 °C 1026.3 hPa NNE 9 km/h 18.5 km/h 64 % 0 mm
01:53 5.3 °C -0.7 °C 1026.3 hPa ENE 5.6 km/h 13 km/h 65 % 0 mm
01:58 5.3 °C -1 °C 1026 hPa NNE 12.1 km/h 20.4 km/h 64 % 0 mm
02:03 5.3 °C -0.8 °C 1026 hPa NE 5.3 km/h 13 km/h 65 % 0 mm
02:13 5.2 °C -1.1 °C 1026.3 hPa NNE 8.9 km/h 16.7 km/h 64 % 0 mm
02:18 5.1 °C -1.2 °C 1026.6 hPa NNE 3.7 km/h 7.4 km/h 64 % 0 mm
02:23 5.1 °C -1.2 °C 1026.6 hPa NNE 10.1 km/h 13 km/h 64 % 0 mm
02:28 5.1 °C -1 °C 1026.6 hPa NNE 10.3 km/h 16.1 km/h 65 % 0 mm
02:33 5 °C -1.3 °C 1027 hPa NE 9.2 km/h 13 km/h 64 % 0 mm
02:38 4.9 °C -1.1 °C 1027 hPa NNE 4.2 km/h 6.4 km/h 65 % 0 mm
02:43 4.9 °C -1.1 °C 1027 hPa NNE 8.9 km/h 14.8 km/h 65 % 0 mm
02:44 4.9 °C -1.1 °C 1026.6 hPa NNE 8.5 km/h 11.3 km/h 65 % 0 mm
02:49 4.8 °C -1.2 °C 1027 hPa ENE 3.5 km/h 6.4 km/h 65 % 0 mm
02:54 4.8 °C -1 °C 1027 hPa NNE 2.7 km/h 6.4 km/h 66 % 0 mm
02:59 4.8 °C -1.1 °C 1027 hPa North 4.3 km/h 8 km/h 66 % 0 mm
03:09 4.7 °C -1.2 °C 1027 hPa NNE 5.8 km/h 7.4 km/h 66 % 0 mm
03:14 4.6 °C -1.4 °C 1027 hPa NNE 5.6 km/h 9.3 km/h 65 % 0 mm
03:19 4.6 °C -1.4 °C 1027 hPa NNE 5 km/h 7.4 km/h 65 % 0 mm
03:24 4.5 °C -1.5 °C 1027.3 hPa NE 6.3 km/h 13 km/h 65 % 0 mm
03:29 4.5 °C -1.5 °C 1027 hPa NNE 8.5 km/h 16.7 km/h 65 % 0 mm
03:34 4.4 °C -1.3 °C 1027 hPa NNE 5.5 km/h 7.4 km/h 66 % 0 mm
03:44 4.4 °C -1.4 °C 1027.3 hPa East 7.7 km/h 13 km/h 66 % 0 mm
03:54 4.3 °C -1.4 °C 1027.3 hPa ENE 5.6 km/h 8 km/h 66 % 0 mm
04:00 4.3 °C -1.4 °C 1027 hPa ENE 5.3 km/h 11.1 km/h 66 % 0 mm
04:10 4.3 °C -1.7 °C 1027 hPa NNE 7.9 km/h 11.1 km/h 65 % 0 mm
04:15 4.3 °C -1.5 °C 1027.3 hPa NE 6.1 km/h 13 km/h 66 % 0 mm
04:20 4.3 °C -1.5 °C 1027.3 hPa ENE 5.6 km/h 8 km/h 66 % 0 mm
04:25 4.3 °C -1.5 °C 1027.3 hPa NE 2.1 km/h 5.6 km/h 66 % 0 mm
04:30 4.3 °C -1.7 °C 1027.3 hPa ENE 2.1 km/h 5.6 km/h 65 % 0 mm
04:35 4.3 °C -1.5 °C 1027.3 hPa NE 1.3 km/h 3.7 km/h 66 % 0 mm
04:40 4.2 °C -1.6 °C 1027.7 hPa ENE 1.8 km/h 5.6 km/h 66 % 0 mm
04:45 4.2 °C -1.4 °C 1027.3 hPa ENE 6 km/h 13 km/h 67 % 0 mm
04:55 4.1 °C -1.5 °C 1027.3 hPa ENE 5 km/h 8 km/h 67 % 0 mm
05:00 4.1 °C -1.5 °C 1027.3 hPa ENE 1.6 km/h 5.6 km/h 67 % 0 mm
05:05 4 °C -1.6 °C 1027.3 hPa ENE 2.6 km/h 5.6 km/h 67 % 0 mm
05:15 4 °C -1.4 °C 1027.3 hPa NNE 3.7 km/h 5.6 km/h 68 % 0 mm
05:20 3.9 °C -1.6 °C 1027.7 hPa NE 1 km/h 5.6 km/h 67 % 0 mm
05:31 3.8 °C -1.6 °C 1027.7 hPa NE 0.5 km/h 3.2 km/h 68 % 0 mm
05:36 3.7 °C -1.7 °C 1027.7 hPa Calm   1.6 km/h 68 % 0 mm
05:41 3.6 °C -1.6 °C 1027.7 hPa Calm     69 % 0 mm
05:46 3.4 °C -1.7 °C 1028 hPa Calm   1.6 km/h 69 % 0 mm
05:51 3.3 °C -1.7 °C 1028 hPa Calm   1.6 km/h 70 % 0 mm
05:56 3.1 °C -1.7 °C 1028 hPa Calm   4.8 km/h 71 % 0 mm
06:01 2.9 °C -1.8 °C 1028 hPa Calm     71 % 0 mm
06:11 2.6 °C -2 °C 1028 hPa Calm   4.8 km/h 72 % 0 mm
06:16 2.4 °C -1.9 °C 1028 hPa Calm   1.6 km/h 73 % 0 mm
06:26 2.2 °C -2 °C 1028 hPa Calm   1.6 km/h 74 % 0 mm
06:31 2.1 °C -2.1 °C 1028 hPa Calm   6.4 km/h 74 % 0 mm
06:36 2 °C -2.2 °C 1028 hPa NE 1.6 km/h 8 km/h 74 % 0 mm
06:41 1.9 °C -2.2 °C 1028 hPa ENE 3.2 km/h 6.4 km/h 74 % 0 mm
06:46 2 °C -1.9 °C 1028 hPa ENE 3.2 km/h 6.4 km/h 75 % 0 mm
06:51 2.1 °C -2 °C 1028 hPa ENE 3.2 km/h 8 km/h 74 % 0 mm
07:06 2.8 °C -1.8 °C 1027.7 hPa ENE 6 km/h 8 km/h 72 % 0 mm
07:11 3.1 °C -1.4 °C 1027.7 hPa East 9.2 km/h 13 km/h 72 % 0 mm
07:16 3.3 °C -1.2 °C 1027.3 hPa East 7.6 km/h 11.1 km/h 72 % 0 mm
07:19 3.4 °C -1.3 °C 1027.3 hPa NE 7.7 km/h 13 km/h 71 % 0 mm
07:24 3.6 °C -0.9 °C 1027.3 hPa East 8.5 km/h 13 km/h 72 % 0 mm
07:29 3.7 °C -1.1 °C 1027 hPa ENE 9 km/h 16.7 km/h 71 % 0 mm
07:34 3.8 °C -0.8 °C 1026.3 hPa ENE 14.8 km/h 19.3 km/h 72 % 0 mm
07:39 3.8 °C -0.9 °C 1027 hPa East 10.1 km/h 13 km/h 71 % 0 mm
07:44 3.9 °C -0.7 °C 1027 hPa ENE 9.2 km/h 14.8 km/h 72 % 0 mm
07:49 3.9 °C -0.4 °C 1027.3 hPa ENE 8.7 km/h 13 km/h 73 % 0 mm
07:54 3.9 °C -0.3 °C 1027.7 hPa ENE 8.7 km/h 9.3 km/h 74 % 0 mm
08:05 4.1 °C 0 °C 1027.3 hPa ENE 5.1 km/h 11.1 km/h 75 % 0 mm
08:15 4.2 °C 0.3 °C 1027.3 hPa ENE 6.8 km/h 11.1 km/h 76 % 0 mm
08:20 4.3 °C 0.4 °C 1027.7 hPa ENE 6.6 km/h 14.8 km/h 76 % 0 mm
08:25 4.3 °C 0.4 °C 1027.7 hPa East 1.4 km/h 5.6 km/h 76 % 0 mm
08:30 4.4 °C 0.6 °C 1027.7 hPa ESE 0.3 km/h 5.6 km/h 76 % 0 mm
08:35 4.4 °C 0.4 °C 1028 hPa ESE 0.3 km/h 1.9 km/h 75 % 0 mm
08:40 4.5 °C 0.3 °C 1027.7 hPa ESE 0.3 km/h 1.9 km/h 74 % 0 mm
08:45 4.6 °C 0.3 °C 1027.7 hPa Calm   1.9 km/h 74 % 0 mm
08:50 4.7 °C 0.4 °C 1027.7 hPa ESE 1.3 km/h 3.7 km/h 74 % 0 mm
09:00 4.8 °C 0.8 °C 1027 hPa East 8.9 km/h 11.1 km/h 75 % 0 mm
09:05 4.9 °C 0.9 °C 1027 hPa East 4.8 km/h 5.6 km/h 75 % 0 mm
09:10 5 °C 0.9 °C 1027 hPa East 2.4 km/h 5.6 km/h 75 % 0 mm
09:20 5.2 °C 1.1 °C 1027 hPa East 1.9 km/h 3.2 km/h 75 % 0 mm
09:25 5.2 °C 0.9 °C 1026.6 hPa East 4.2 km/h 8 km/h 74 % 0 mm
09:35 5.4 °C 1 °C 1026.3 hPa East 8.9 km/h 11.3 km/h 73 % 0 mm
09:40 5.5 °C 0.8 °C 1026 hPa East 7.7 km/h 13 km/h 72 % 0 mm
09:56 5.8 °C 0.9 °C 1025.6 hPa East 9.7 km/h 14.5 km/h 71 % 0 mm
10:01 5.8 °C 1 °C 1025.6 hPa East 6.9 km/h 8 km/h 71 % 0 mm
10:06 5.9 °C 1.1 °C 1025.6 hPa East 4.8 km/h 11.3 km/h 71 % 0 mm
10:21 6.1 °C 0.6 °C 1026 hPa Calm   4.8 km/h 68 % 0 mm
10:26 6.2 °C 0.9 °C 1026 hPa Calm   3.2 km/h 69 % 0 mm
10:36 6.4 °C 0.9 °C 1025.6 hPa Calm     68 % 0 mm
10:41 6.5 °C 1 °C 1025.6 hPa Calm   3.2 km/h 68 % 0 mm
10:46 6.6 °C 1.3 °C 1025.3 hPa Calm   1.6 km/h 69 % 0 mm
10:51 6.7 °C 1.4 °C 1025.3 hPa Calm     69 % 0 mm
10:56 6.9 °C 1.6 °C 1025.3 hPa ENE 1.6 km/h 3.2 km/h 69 % 0 mm
11:01 6.9 °C 1.2 °C 1025.3 hPa Calm     67 % 0 mm
11:06 7.1 °C 1.3 °C 1025.3 hPa Calm   1.6 km/h 67 % 0 mm
11:21 7.4 °C 1.7 °C 1024.9 hPa Calm   1.9 km/h 67 % 0 mm
11:26 7.5 °C 1.9 °C 1024.9 hPa Calm   1.6 km/h 68 % 0 mm
11:31 7.7 °C 2.3 °C 1024.9 hPa ENE 1.6 km/h 3.2 km/h 69 % 0 mm
11:36 7.8 °C 2.2 °C 1025.3 hPa NW 1.6 km/h 6.4 km/h 68 % 0 mm
11:41 7.8 °C 2.3 °C 1024.9 hPa WNW 1.6 km/h 4.8 km/h 68 % 0 mm
11:56 7.9 °C 2.1 °C 1024.9 hPa WNW 3.2 km/h 11.3 km/h 67 % 0 mm
12:01 7.9 °C 2.1 °C 1024.9 hPa WNW 3.4 km/h 5.6 km/h 67 % 0 mm
12:06 7.9 °C 2.1 °C 1024.9 hPa WNW 3.7 km/h 9.3 km/h 67 % 0 mm
12:11 7.9 °C 2.4 °C 1024.9 hPa WNW 3.1 km/h 5.6 km/h 68 % 0 mm
12:16 8 °C 2.7 °C 1024.9 hPa WNW 2.6 km/h 6.4 km/h 69 % 0 mm
12:26 8.1 °C 2.9 °C 1024.6 hPa NNW 3.9 km/h 6.4 km/h 70 % 0 mm
12:31 8.2 °C 3.4 °C 1024.6 hPa North 7.1 km/h 11.1 km/h 72 % 0 mm
12:36 8.1 °C 3.6 °C 1024.6 hPa NNE 6.4 km/h 8 km/h 73 % 0 mm
12:56 7.9 °C 3.3 °C 1023.9 hPa NNE 6.9 km/h 9.3 km/h 73 % 0 mm
13:01 7.8 °C 3.5 °C 1023.9 hPa NE 5.1 km/h 6.4 km/h 74 % 0 mm
13:06 7.8 °C 3.5 °C 1023.9 hPa NNE 6.8 km/h 9.3 km/h 74 % 0 mm
13:11 7.9 °C 3.7 °C 1023.6 hPa NNE 2.3 km/h 5.6 km/h 75 % 0 mm
13:16 7.9 °C 3.6 °C 1023.6 hPa NE 2.7 km/h 4.8 km/h 74 % 0 mm
13:21 7.9 °C 3.6 °C 1023.2 hPa NNE 4.8 km/h 8 km/h 74 % 0 mm
13:26 7.8 °C 3.5 °C 1023.2 hPa ENE 3.5 km/h 7.4 km/h 74 % 0 mm
13:31 7.8 °C 3.4 °C 1023.2 hPa NE 3.2 km/h 5.6 km/h 74 % 0 mm
13:36 7.7 °C 3.6 °C 1023.2 hPa ENE 2.1 km/h 5.6 km/h 75 % 0 mm
13:41 7.8 °C 3.8 °C 1022.9 hPa ENE 2.6 km/h 5.6 km/h 76 % 0 mm
13:51 7.9 °C 3.6 °C 1022.9 hPa ENE 0.5 km/h 5.6 km/h 74 % 0 mm
13:56 7.8 °C 3.7 °C 1022.9 hPa ENE 3.5 km/h 8 km/h 75 % 0 mm
14:01 7.8 °C 3.6 °C 1022.6 hPa ENE 3.7 km/h 6.4 km/h 75 % 0 mm
14:16 7.8 °C 3.8 °C 1022.2 hPa East 6.8 km/h 8 km/h 76 % 0 mm
14:22 7.7 °C 3.8 °C 1021.9 hPa ENE 5.3 km/h 13 km/h 76 % 0 mm
14:32 7.6 °C 3.8 °C 1021.6 hPa NE 6.6 km/h 9.3 km/h 77 % 0 mm
14:37 7.5 °C 3.9 °C 1021.6 hPa East 5.8 km/h 8 km/h 78 % 0 mm
14:42 7.5 °C 4.1 °C 1021.6 hPa ENE 5.6 km/h 9.3 km/h 79 % 0 mm
14:52 7.5 °C 4.1 °C 1021.6 hPa ENE 7.2 km/h 11.1 km/h 79 % 0 mm
15:02 7.5 °C 4.3 °C 1021.6 hPa East 5.5 km/h 9.3 km/h 80 % 0 mm
15:07 7.5 °C 4.4 °C 1021.6 hPa East 4.3 km/h 7.4 km/h 81 % 0 mm
15:12 7.5 °C 4.4 °C 1021.2 hPa East 8 km/h 9.7 km/h 81 % 0 mm
15:17 7.6 °C 4.7 °C 1021.2 hPa ENE 4.2 km/h 7.4 km/h 82 % 0 mm
15:22 7.6 °C 4.7 °C 1020.9 hPa East 3.7 km/h 5.6 km/h 82 % 0 mm
15:27 7.5 °C 4.6 °C 1020.9 hPa East 2.9 km/h 5.6 km/h 82 % 0 mm
15:32 7.4 °C 4.7 °C 1020.9 hPa ENE 4.2 km/h 5.6 km/h 83 % 0 mm
15:47 7.4 °C 4.7 °C 1020.5 hPa East 3.9 km/h 5.6 km/h 83 % 0 mm
15:52 7.4 °C 4.7 °C 1020.2 hPa East 0.6 km/h 1.9 km/h 83 % 0 mm
15:57 7.3 °C 4.6 °C 1020.2 hPa East 1.6 km/h 3.7 km/h 83 % 0 mm
16:02 7.3 °C 4.8 °C 1020.2 hPa East 1.3 km/h 3.2 km/h 84 % 0 mm
16:07 7.3 °C 4.6 °C 1020.2 hPa Calm   1.9 km/h 83 % 0 mm
16:22 7.2 °C 4.5 °C 1020.2 hPa Calm     83 % 0 mm
16:37 7.2 °C 4.4 °C 1019.5 hPa East 0.5 km/h 1.9 km/h 83 % 0 mm
16:42 7.1 °C 4.4 °C 1019.5 hPa Calm   1.9 km/h 83 % 0 mm
16:52 7.1 °C 4.4 °C 1019.5 hPa Calm     83 % 0 mm
17:02 6.9 °C 4.3 °C 1019.2 hPa Calm     83 % 0 mm
17:07 6.9 °C 4.3 °C 1019.2 hPa Calm     83 % 0 mm
17:13 6.9 °C 4.2 °C 1019.2 hPa Calm     83 % 0 mm
17:18 6.8 °C 4.2 °C 1019.2 hPa Calm     83 % 0 mm
17:23 6.8 °C 4.1 °C 1019.2 hPa Calm     83 % 0 mm
17:28 6.7 °C 4.1 °C 1019.2 hPa Calm   1.9 km/h 83 % 0 mm
17:38 6.6 °C 4.1 °C 1019.2 hPa Calm     84 % 0 mm
17:43 6.5 °C 4 °C 1019.2 hPa East 1 km/h 1.9 km/h 84 % 0 mm
17:58 6.3 °C 3.9 °C 1019.2 hPa Calm     85 % 0 mm
18:08 6.2 °C 3.8 °C 1019.2 hPa Calm     85 % 0 mm
18:13 6.1 °C 3.8 °C 1019.2 hPa Calm     85 % 0 mm
18:18 6.1 °C 3.7 °C 1018.8 hPa Calm     85 % 0 mm
18:23 6 °C 3.7 °C 1018.8 hPa Calm     85 % 0 mm
18:28 5.9 °C 3.6 °C 1018.8 hPa Calm     85 % 0 mm
18:33 5.9 °C 3.7 °C 1018.8 hPa Calm     86 % 0 mm
18:38 5.8 °C 3.7 °C 1018.8 hPa Calm     86 % 0 mm
18:43 5.8 °C 3.6 °C 1018.5 hPa Calm     86 % 0 mm
18:58 5.6 °C 3.4 °C 1018.5 hPa Calm     86 % 0 mm
19:08 5.5 °C 3.3 °C 1018.5 hPa Calm     86 % 0 mm
19:13 5.4 °C 3.2 °C 1018.2 hPa Calm     86 % 0 mm
19:24 5.3 °C 3.1 °C 1018.2 hPa Calm     86 % 0 mm
19:29 5.2 °C 3.2 °C 1018.2 hPa Calm     87 % 0 mm
19:34 5.2 °C 3.2 °C 1018.2 hPa Calm     87 % 0 mm
19:39 5.1 °C 3.1 °C 1018.2 hPa Calm     87 % 0 mm
19:44 5.1 °C 3.3 °C 1018.2 hPa Calm     88 % 0 mm
19:54 5.2 °C 3.9 °C 1018.2 hPa Calm     91 % 0 mm
20:04 5.4 °C 4.4 °C 1018.2 hPa Calm     93 % 0 mm
20:09 5.6 °C 4.5 °C 1018.2 hPa East 0.3 km/h 1.9 km/h 93 % 0 mm
20:14 5.7 °C 4.8 °C 1017.8 hPa SE 1.3 km/h 3.2 km/h 94 % 0 mm
20:19 5.8 °C 4.9 °C 1017.8 hPa SE 3.9 km/h 5.6 km/h 94 % 0 mm
20:29 7.1 °C 6.5 °C 1017.8 hPa SSE 2.9 km/h 6.4 km/h 96 % 0 mm
20:34 7.7 °C 7.1 °C 1017.5 hPa SSE 5.5 km/h 8 km/h 96 % 0 mm
20:39 8.2 °C 7.6 °C 1017.5 hPa SSE 2.3 km/h 7.4 km/h 96 % 0 mm
20:44 8.4 °C 7.6 °C 1017.8 hPa South 0.5 km/h 1.9 km/h 95 % 0 mm
20:49 8.6 °C 7.8 °C 1017.5 hPa SSE 2.1 km/h 11.3 km/h 95 % 0 mm
20:59 8.8 °C 7.8 °C 1017.8 hPa SSW 0.6 km/h 3.7 km/h 93 % 0 mm
21:04 8.9 °C 7.8 °C 1017.8 hPa Calm   1.6 km/h 93 % 0 mm
21:09 9 °C 7.9 °C 1017.8 hPa SSW 2.4 km/h 5.6 km/h 93 % 0 mm
21:14 9 °C 7.8 °C 1017.8 hPa SSW 0.8 km/h 3.7 km/h 92 % 0 mm
21:19 9.1 °C 7.8 °C 1017.5 hPa SSW 0.6 km/h   92 % 0 mm
21:24 9.1 °C 7.8 °C 1017.5 hPa SSW 1 km/h 3.7 km/h 92 % 0 mm
21:29 9.1 °C 7.9 °C 1017.5 hPa SSW 0.3 km/h 1.9 km/h 92 % 0 mm
21:34 9.1 °C 7.7 °C 1017.5 hPa SSW 1.9 km/h 3.7 km/h 91 % 0 mm
21:39 9.2 °C 7.8 °C 1017.5 hPa SSW 1 km/h 5.6 km/h 91 % 0 mm
21:44 9.2 °C 7.8 °C 1017.2 hPa SSW 0.3 km/h   91 % 0 mm
21:49 9.2 °C 7.8 °C 1017.2 hPa SSW 0.2 km/h   91 % 0 mm
21:55 9.3 °C 7.9 °C 1017.2 hPa SSW 2.3 km/h 4.8 km/h 91 % 0 mm
22:00 9.3 °C 7.9 °C 1017.2 hPa Calm   1.9 km/h 91 % 0 mm
22:05 9.4 °C 8 °C 1017.5 hPa SSW 2.4 km/h 5.6 km/h 91 % 0 mm
22:15 9.5 °C 8.1 °C 1017.5 hPa SW 0.8 km/h 3.7 km/h 91 % 0 mm
22:20 9.6 °C 8.2 °C 1017.5 hPa SW 0.8 km/h 3.7 km/h 91 % 0 mm
22:21 9.6 °C 8.2 °C 1017.5 hPa SW 3.7 km/h 5.6 km/h 91 % 0 mm
22:25 9.7 °C 8.3 °C 1010 hPa Calm   1.9 km/h 91 % 0 mm
22:26 9.7 °C 8.4 °C 1017.5 hPa Calm   1.9 km/h 92 % 0 mm
22:28 9.7 °C 8.4 °C 1017.5 hPa SW 5.8 km/h 9.3 km/h 92 % 0 mm
22:33 9.8 °C 8.6 °C 1017.5 hPa SW 0.8 km/h 3.2 km/h 92 % 0 mm
22:35 9.8 °C 8.4 °C 1010 hPa SW 0.2 km/h 3.7 km/h 91 % 0 mm
22:40 9.9 °C 8.5 °C 1017.5 hPa WSW 0.3 km/h 3.2 km/h 91 % 0 mm
22:45 9.9 °C 8.6 °C 1017.5 hPa WSW 1.8 km/h 3.7 km/h 91 % 0 mm
22:50 10 °C 8.6 °C 1017.5 hPa WSW 0.2 km/h 1.9 km/h 91 % 0 mm
22:55 10.1 °C 8.7 °C 1017.5 hPa WSW 1 km/h 3.7 km/h 91 % 0 mm
23:00 10.1 °C 8.7 °C 1017.2 hPa Calm   3.7 km/h 91 % 0 mm
23:10 10.2 °C 8.8 °C 1017.2 hPa Calm     91 % 0 mm
23:15 10.2 °C 8.8 °C 1017.2 hPa Calm     91 % 0 mm
23:20 10.2 °C 8.7 °C 1017.2 hPa Calm     90 % 0 mm
23:25 10.2 °C 8.8 °C 1017.2 hPa Calm   1.9 km/h 91 % 0 mm
23:35 10.3 °C 8.9 °C 1017.2 hPa Calm   4.8 km/h 91 % 0 mm
23:40 10.3 °C 8.9 °C 1016.8 hPa Calm   6.4 km/h 91 % 0 mm
23:45 10.3 °C 9.1 °C 1016.8 hPa Calm   5.6 km/h 92 % 0 mm
Crab Meadow Weather
Compliments of Weather Underground - 2.5 mb

Script developed by  Jim McMurry - jmcmurry@mwt.net Adapted for the template by  Wim van der Kuil - Leuven-Template.eu

Astronomy: Neptune was discovered in 1846 (over 150 years ago). Since that time it has still yet to make a complete orbit around the sun, because one Neptune year lasts 165 Earth years!